Meath Environmental Platform

Observations for Trim Market St

Time AQI Temp °C Hum % Pres Pa CO μg/m³ H₂S μg/m³ NO μg/m³ NO₂ μg/m³ O₃ μg/m³ SO₂ μg/m³ PM1 μg/m³ PM2.5 μg/m³ PM10 μg/m³
Tuesday 14 July 2026
21:16 2 21.7 51 55,720 0 0 0 9.02 28.21 0 4.99 8.06 11.23
21:15 2 21.7 51 55,731 0 0 0 10.12 26.42 0 3.56 7.55 11.23
21:14 2 21.8 51 55,766 0 0 0 10.8 23.49 0 5.7 9.61 13.45
21:13 2 21.8 51 55,755 0 1.19 0 9.81 31.48 0 4.28 7.56 10.49
21:12 2 21.8 51 55,775 0 0.53 0 10.11 29.04 0 3.56 8.59 11.23
21:11 2 21.8 51 55,823 0 0 0 9.13 27.07 0 4.28 7.05 9.75
21:10 2 21.9 51 55,798 0 0 0 10.6 25.74 0 3.56 7.56 10.5
21:09 2 21.9 50 55,739 0 0.18 0 14.41 18.55 0 4.99 8.08 11.98
21:08 2 21.9 51 55,753 0 1.13 0 11.9 24.65 0 4.99 7.56 10.5
21:07 2 21.9 50 55,769 0 3.14 0 18.31 19.78 0 5.7 8.6 11.24
21:06 2 22 50 55,816 0 2.93 0 13.79 27.74 0 4.28 8.09 10.5
21:05 2 22 50 55,864 0 3.56 0.4 16.21 19.85 0 5.7 8.61 13.48
21:04 2 22 50 55,933 0 2.74 0 9.92 29.54 0 4.99 8.1 10.51
21:03 2 22.1 50 56,021 0 2.11 0 11 29.62 0 4.99 9.14 12
20:59 2 22.2 49 56,495 0 4.19 0 13.85 27.18 0 5.7 9.18 12.02
20:58 2 22.2 49 56,783 0 6.12 0 12.59 29.7 0 5.7 9.71 15.04
20:56 2 22.3 49 57,661 0 4.67 0 11.32 33.57 0 3.56 6.64 8.28
20:55 2 22.3 48 58,217 0 6.65 0 12.25 34.23 0 4.99 9.25 12.06
20:54 2 22.3 48 58,878 0 6.25 0 14.89 28.66 0 3.56 6.68 9.8
20:53 2 22.3 48 59,691 0 4.64 0 13.91 28.3 0 3.56 7.21 9.04